FRIANT DAM (MILLERTON) (MIL)

Elevation: 581' · SAN JOAQUIN R basin · Operator: US Bureau of Reclamation

Provisional data, subject to change.
Query executed Friday at 18:35:02   clock

Select a sensor type for a plot of data.
Note: Reservoir Flows are daily averages.

Earlier

Date RES ELE    STORAGE    RES CHG    TOC STO    ABV TOC    OUTFLOW    INFLOW    EVAP    FNF    RIV REL    PPT INC    SPILL   
 FEET   AF   AF   AF   AF   CFS   CFS   CFS   CFS   CFS   INCHES   CFS  
06/04/2015 484.83 173861 -1133 520500 -346639 607 53 17 1244 234 0.00 0
06/05/2015 484.39 172734 -1127 520500 -347766 591 48 25 1376 244 0.00 0
06/06/2015 483.97 171659 -1075 520500 -348841 595 79 26 1226 251 0.00 0
06/07/2015 483.51 170491 -1168 520500 -350009 592 28 25 1183 250 0.00 0
06/08/2015 483.20 169705 -786 520500 -350795 589 231 38 850 e 250 0.00 0
06/09/2015 483.06 169349 -356 520500 -- 587 437 29 1089 250 0.29 0
06/10/2015 482.87 168870 -479 520500 -351630 586 375 30 850 e 250 0.00 0
06/11/2015 482.86 168845 -25 520500 -351655 586 596 23 981 250 0.00 0
06/12/2015 483.35 170085 1240 520500 -350415 501 1153 27 1801 250 0.00 0
06/13/2015 484.21 172273 2188 520500 -348227 417 1560 40 1749 250 0.00 0
06/14/2015 484.04 171837 -436 520500 -348663 419 243 44 1791 251 0.00 0
06/15/2015 483.96 171633 -204 520500 -348867 465 395 33 1056 259 0.00 0
06/16/2015 483.62 170771 -862 520500 -349729 491 88 32 1026 267 0.00 0
06/17/2015 483.30 169958 -813 520500 -350542 489 113 34 787 267 0.00 0
06/18/2015 482.99 169172 -786 520500 -351328 488 133 41 703 267 0.00 0
06/19/2015 482.66 168342 -830 520500 -352158 569 186 35 749 267 0.00 0
06/20/2015 482.61 168216 -126 520500 -352284 617 584 31 361 275 0.00 0
06/21/2015 482.20 167184 -1032 520500 -353316 622 138 36 491 281 0.00 0
06/22/2015 482.26 167335 151 520500 -353165 654 771 41 507 281 0.00 0
06/23/2015 482.55 168065 730 520500 -352435 694 1094 32 514 281 0.00 0
06/24/2015 482.67 168367 302 520500 -352133 707 890 31 392 281 0.00 0
06/25/2015 482.66 168342 -25 520500 -352158 580 598 31 309 272 0.00 0
06/26/2015 483.59 170694 2352 520500 -349806 493 1711 32 365 e 267 0.00 0
06/27/2015 484.42 172811 2117 520500 -- 466 1563 30 365 e 259 0.00 0
06/28/2015 485.16 174710 1899 520500 -- 472 1453 24 414 253 0.00 0
06/29/2015 486.08 177090 2380 520500 -343410 510 1734 24 528 e 253 0.00 0
06/30/2015 486.75 178838 1748 520500 -341662 503 1408 24 527 e 254 0.00 0
07/01/2015 487.14 179858 1020 520500 -340642 593 1138 31 711 255 0.03 0
07/02/2015 487.26 180174 316 520500 -340326 620 808 29 573 256 0.00 0
07/03/2015 -- -- -- -- -- -- -- -- -- -- -- --

Later | Latest

Warning! This data is preliminary and subject to revision.

Show MIL Map | Plot MIL Data | 1 Month MIL Data | Real-Time MIL Data | MIL Info